SCP
0 0 0 0 0 0 0 0 0 0 0 0 0 0 0 0 0 0 0 0 0 0 0 -0 0 0 0 0 0 0 0 0 0 0 0 -0 -0 -0 -0 -0 0 -0 -0 -0 -0 -0 -0 -0 -0
0 0 0 0 0 0 0 0 0 0 0 0 0 0 0 0 0 0 0 0 0 0 1 0 0 0 0 0 1 1 0 0 0 0 0 -0 -0 0 0 -0 0 0 -0 -0 -0 -0 -0 -0 -0
0 0 0 0 0 0 0 0 0 0 0 0 0 0 0 0 0 0 0 0 0 0 0 0 1 0 0 0 0 1 1 0 0 0 0 0 0 0 0 0 0 0 -0 -0 -0 -0 -0 -0 -0
0 0 0 0 0 0 0 0 0 0 0 0 0 0 0 0 0 0 0 0 0 0 0 0 0 1 0 0 0 1 1 1 0 0 0 0 0 0 0 0 0 0 -0 -0 -0 -0 -0 -0 -0
0 0 0 0 0 0 0 0 0 0 0 0 0 0 0 0 0 0 0 0 0 0 0 0 0 0 1 0 0 0 1 1 0 0 0 0 0 0 0 0 0 0 0 -0 -0 -0 -0 -0 -0
0 0 0 0 0 0 0 0 0 0 0 0 0 0 0 0 0 0 0 0 0 0 0 0 0 0 0 0 0 0 0 1 1 1 0 0 0 0 0 0 0 0 0 0 -0 -0 -0 -0 -0
0 0 0 0 0 0 0 0 0 0 0 0 0 0 0 0 0 0 0 0 0 0 0 0 0 0 0 0 0 0 0 0 0 0 0 0 0 0 0 0 0 0 0 0 0 0 -0 -0 -0
0 0 0 0 0 0 0 0 0 0 0 0 0 0 0 0 0 0 0 0 0 0 0 0 0 0 0 0 0 0 0 0 0 0 0 0 0 0 0 0 0 0 0 0 0 0 0 0 0
0 0 0 0 0 0 0 0 0 0 0 0 0 0 0 0 0 0 0 0 0 0 0 0 0 0 0 0 1 0 0 0 0 0 0 0 0 0 0 0 0 0 0 0 0 0 0 0 0
0 0 0 0 0 0 0 0 0 0 0 0 0 0 0 0 0 0 0 0 0 0 0 0 0 0 0 0 0 1 1 1 1 1 0 0 0 0 0 0 0 0 0 0 0 0 0 0 0
0 0 0 0 0 0 0 0 0 0 0 0 0 0 0 0 0 0 0 0 0 0 0 0 0 0 0 0 0 2 1 2 1 0 0 0 0 0 0 1 0 0 0 0 0 0 0 0 0
0 0 0 0 0 0 0 0 0 0 0 0 0 0 0 0 0 0 0 0 0 0 0 0 0 0 0 0 0 1 2 2 2 1 0 0 1 0 0 1 0 0 0 0 0 0 0 0 0
0 0 0 0 0 0 0 0 0 0 0 0 0 0 0 0 0 0 0 0 0 0 0 0 0 0 0 0 0 0 2 2 2 2 1 0 1 1 1 0 0 0 0 0 0 0 0 0 0
0 0 0 0 0 0 0 0 0 0 0 0 0 0 0 0 0 0 0 0 0 0 0 0 0 0 0 0 0 0 1 2 2 2 2 1 1 1 1 1 0 0 0 0 0 0 0 0 0
0 0 0 0 0 0 0 0 0 0 0 0 0 0 0 0 0 0 0 0 0 0 0 0 0 0 0 0 0 0 0 2 2 3 1 1 1 1 1 1 0 0 0 0 0 0 0 0 0
0 0 0 0 0 0 0 0 0 0 0 0 0 0 0 0 0 0 0 0 0 0 0 0 0 0 0 0 0 0 0 2 2 3 3 1 1 1 1 1 0 0 0 0 0 0 0 0 0
0 0 0 0 0 0 0 0 0 0 0 0 0 0 0 0 0 0 0 0 0 0 0 0 0 0 0 0 0 0 0 1 2 3 2 2 1 1 1 1 1 0 0 0 0 0 0 0 0
0 0 0 0 0 0 0 0 0 0 0 0 0 0 0 -0 -0 0 0 0 0 0 0 0 0 0 0 0 0 0 0 0 2 3 2 2 2 1 1 1 0 0 0 0 0 0 0 0 0
0 0 0 0 0 0 0 0 0 0 0 0 0 0 0 0 0 0 0 0 0 0 0 0 0 0 0 0 0 0 0 0 2 2 2 1 2 1 1 1 1 0 0 0 0 0 0 0 0
0 0 0 0 0 0 0 0 0 0 0 0 0 0 -0 0 0 0 0 0 0 0 0 0 0 0 0 0 0 0 0 0 1 2 2 1 2 1 1 1 1 0 0 0 0 0 0 0 0
0 0 0 0 0 0 0 0 0 0 0 0 0 0 0 0 0 0 0 0 0 0 0 0 0 0 0 0 0 0 0 0 0 1 2 2 2 1 1 1 1 0 0 0 0 0 0 0 0
-0 0 0 0 0 0 0 0 0 0 0 0 0 0 0 0 0 0 0 0 0 0 0 0 0 0 0 0 0 0 0 0 1 1 2 2 1 1 1 1 0 0 0 0 0 0 0 0 0
0 0 -0 0 0 0 0 0 0 0 0 0 0 0 0 0 0 0 0 -0 0 0 0 0 0 0 0 0 0 0 0 0 1 1 1 1 1 1 1 1 0 0 0 0 0 0 0 0 0
0 0 0 0 0 0 0 0 0 0 0 -0 -0 -0 0 0 0 -0 -0 -0 -0 0 0 -0 0 0 0 0 0 0 0 1 1 1 1 1 1 1 1 1 1 0 0 0 0 0 0 0 0
0 0 0 0 0 0 -0 0 0 0 0 -0 0 -0 -0 -0 0 -0 -0 -0 -0 -0 -0 0 0 -0 0 0 0 0 0 0 1 1 1 1 1 1 1 1 0 0 0 0 0 0 0 0 0
0 0 0 0 0 0 -0 -0 0 0 0 -0 -0 -0 0 -0 -0 -0 -0 -0 -0 -0 0 0 0 -0 -0 0 0 0 0 0 1 1 2 1 1 1 1 1 0 0 0 0 0 0 0 0 0
0 0 0 0 0 0 0 -0 0 0 0 -0 -0 -0 0 0 -0 -0 -0 -0 -0 -0 -0 -0 -0 -0 0 0 -0 0 0 0 0 1 1 1 1 1 0 0 0 0 0 0 0 0 0 0 0
0 0 0 0 0 0 -0 -0 0 0 0 -0 -0 -0 -0 0 -0 -0 -0 -0 -0 -0 -0 -0 -0 0 -0 0 -0 -0 -0 0 0 0 0 1 1 0 0 0 0 0 0 0 0 0 0 0 0
0 0 0 0 0 0 0 0 0 0 0 0 -0 -0 -0 -0 -0 -0 -0 -0 -0 -0 -0 -0 -0 0 -0 0 -0 0 0 0 0 0 0 0 0 0 0 0 0 0 0 0 0 0 0 0 0
0 0 0 0 0 0 0 0 0 0 0 0 -0 -0 -0 -0 -0 -0 -0 -0 -0 -0 -0 -0 -0 -0 -0 -0 0 0 0 0 0 0 0 0 0 0 0 0 0 0 0 0 0 0 0 0 0
Wind_Speed_500mb
16 15 13 14 10 11 24 18 14 7 5 5 11 9 12 24 9 4 6 21 19 17 7 12 28 32 38 37 36 33 30 27 24 20 18 15 13 18 23 26 25 26 31 34 25 26 33 32 27
15 17 14 11 10 19 18 14 18 9 10 8 8 14 11 9 6 7 8 22 23 17 5 9 25 35 37 42 39 36 33 30 26 23 20 17 14 21 23 26 26 24 32 32 27 27 28 27 24
16 20 14 8 11 22 10 3 5 12 2 6 6 6 10 2 4 3 4 17 20 20 15 10 31 36 40 44 41 39 36 33 29 25 22 19 16 24 28 27 23 33 32 32 29 23 24 25 22
12 6 4 11 20 3 8 8 4 9 7 6 5 13 5 3 2 1 5 14 17 21 15 5 30 36 40 46 43 42 40 37 33 30 23 19 18 24 30 34 30 37 31 29 27 23 24 20 23
10 7 11 13 14 2 6 4 1 3 2 4 7 11 8 3 7 8 8 15 18 18 18 13 21 36 44 45 48 46 44 41 38 34 24 22 20 25 31 38 35 34 32 27 27 25 23 22 22
7 7 11 18 17 6 5 3 5 11 8 10 12 23 27 13 12 14 15 20 22 22 20 19 20 26 41 48 49 50 48 45 43 39 28 26 25 27 34 39 37 35 33 28 26 26 23 23 22
6 8 8 13 7 9 6 3 10 8 13 15 8 14 15 14 20 24 24 28 31 29 26 20 22 28 33 48 50 51 52 49 47 42 34 31 31 33 38 39 40 34 32 28 26 26 25 24 23
5 6 5 5 9 5 6 3 2 11 17 13 13 12 12 5 16 27 35 40 39 39 33 27 22 31 33 45 52 53 54 53 50 46 38 38 36 39 40 41 39 35 33 30 27 28 27 25 24
2 7 10 8 8 4 7 7 8 12 25 29 34 41 42 45 43 44 44 44 41 40 34 37 32 27 35 37 51 58 56 56 55 50 43 44 44 44 43 43 41 37 34 31 31 30 30 25 25
8 7 5 12 3 9 10 16 19 18 26 34 32 34 35 36 39 39 40 42 41 39 39 36 39 34 35 39 50 54 64 61 59 57 51 53 45 47 47 48 42 38 37 33 35 34 29 25 26
0 8 8 6 13 14 23 24 25 28 31 27 25 34 37 38 41 41 44 47 48 46 46 42 40 42 38 47 39 53 64 69 66 64 58 60 49 50 50 51 50 45 41 40 41 37 33 25 23
8 5 9 8 9 16 23 30 33 35 42 40 36 31 39 44 46 45 46 48 46 50 54 53 52 50 49 50 55 54 60 72 75 71 62 63 59 59 59 55 53 48 48 48 48 41 34 25 23
10 7 11 22 25 28 35 40 35 34 31 28 28 36 39 41 45 45 44 49 51 54 58 58 58 61 63 52 58 56 62 70 78 77 70 65 67 65 66 62 50 45 43 46 46 36 33 31 28
8 21 28 33 37 27 24 27 10 16 8 21 32 36 38 42 46 51 46 47 52 57 61 60 62 59 62 65 59 67 62 72 75 81 80 69 77 71 68 61 49 48 45 47 43 40 39 34 31
16 26 26 28 3 11 10 29 25 21 12 25 31 35 38 42 46 52 53 53 53 57 60 61 63 63 57 56 59 57 69 71 80 82 84 78 77 77 71 66 53 50 47 46 45 44 39 36 33
16 18 15 9 7 8 10 15 22 13 20 26 30 32 40 46 48 52 56 59 57 60 62 63 61 61 64 59 57 56 52 67 80 84 90 82 80 78 76 75 64 52 49 51 48 44 43 39 37
8 10 15 17 13 5 14 19 15 24 21 28 37 40 47 49 56 56 60 66 67 64 65 66 70 69 66 67 61 57 54 62 76 88 89 88 84 84 82 75 66 60 55 53 52 49 48 45 41
15 13 13 19 4 21 28 31 27 30 13 29 38 47 49 55 60 61 66 70 67 70 67 67 70 72 74 64 67 65 61 59 75 87 93 90 91 86 89 78 75 65 58 54 59 57 54 47 42
25 23 27 27 16 16 26 24 29 23 10 21 35 45 49 59 65 61 64 58 49 53 58 65 68 70 69 67 72 70 69 64 70 77 95 92 94 91 93 86 76 69 70 65 63 58 55 53 45
26 27 27 26 12 18 29 30 29 7 7 20 29 37 46 59 70 67 62 56 39 44 53 64 68 72 70 77 80 73 71 69 59 74 87 91 96 94 92 86 82 82 79 65 63 63 64 59 57
23 19 16 25 28 32 26 36 18 15 7 25 35 37 51 60 67 69 62 50 36 27 29 49 59 67 71 74 70 67 60 65 76 75 78 93 93 89 90 89 90 86 86 80 72 73 69 69 62
23 3 21 20 16 10 8 2 30 1 13 25 43 47 56 62 71 68 59 47 35 25 26 36 46 58 63 62 65 69 66 68 72 85 82 82 86 92 90 92 91 92 90 81 77 79 77 73 72
13 9 15 17 17 18 14 9 18 9 20 30 38 47 58 60 61 64 60 50 41 30 22 31 39 48 56 62 58 65 66 64 68 76 82 85 90 91 90 96 90 94 94 85 81 85 82 77 75
18 12 18 19 11 8 9 9 7 9 21 27 34 46 55 60 60 58 57 50 37 33 29 25 34 43 49 56 60 65 66 66 62 72 80 82 86 94 87 93 91 92 94 89 86 90 86 82 77
8 10 8 8 8 0 7 10 3 9 13 17 23 39 49 51 57 65 71 62 40 27 6 17 30 43 46 56 64 65 71 70 68 80 69 90 87 84 91 86 88 87 88 86 86 89 88 85 80
9 7 6 6 4 5 10 8 1 4 8 16 21 32 39 59 68 66 68 69 55 37 9 12 15 32 39 48 59 63 71 76 76 74 62 65 83 89 91 92 89 83 87 86 83 88 88 84 80
3 5 4 6 10 8 3 8 13 8 6 18 27 35 44 54 61 65 68 72 57 56 38 18 7 28 34 48 43 56 66 71 74 79 84 84 72 81 85 88 84 86 87 91 90 85 83 76 78
10 5 4 5 6 8 10 7 0 8 8 16 22 33 40 45 58 58 65 67 68 60 43 37 5 15 43 39 53 42 58 63 79 78 59 59 64 70 74 80 83 86 77 89 89 90 76 78 76
4 4 4 4 8 6 8 7 6 4 4 11 18 26 31 39 46 48 56 57 64 64 68 48 39 15 17 32 44 31 46 48 44 51 48 53 54 56 62 77 81 83 96 99 84 80 88 82 86
5 7 6 6 6 5 7 8 8 6 1 6 15 21 25 28 34 39 45 52 57 61 62 62 62 61 50 33 11 13 25 32 35 35 31 32 31 32 43 46 50 53 50 59 50 44 43 46 63
Wind_Direction_500mb
166 159 141 160 209 237 236 223 258 187 207 38 351 241 314 269 313 22 116 21 6 16 78 281 204 206 204 202 203 202 202 207 202 203 193 192 185 162 151 148 143 141 135 133 138 140 139 137 134
163 155 151 180 246 215 234 193 208 236 51 336 256 262 267 268 96 80 168 9 7 5 15 185 217 208 211 208 205 206 204 210 213 201 198 200 194 172 158 147 143 155 142 159 151 156 145 139 135
149 153 189 202 231 243 269 77 224 101 326 294 260 239 273 4 69 64 16 6 10 347 334 225 196 214 212 215 209 210 208 208 211 206 205 203 206 183 171 155 162 163 161 169 170 160 149 144 139
141 173 264 234 209 179 326 101 46 233 215 254 316 261 195 231 75 178 337 357 3 359 322 310 199 200 219 218 217 214 214 212 212 208 209 211 211 195 179 166 173 168 175 172 177 166 156 154 141
119 225 229 241 211 132 208 74 241 232 65 244 322 247 225 358 246 268 295 335 340 343 336 295 220 218 214 220 221 219 216 216 214 210 214 217 209 193 184 177 182 181 183 178 178 169 165 157 151
189 272 243 219 186 185 227 159 253 257 279 273 278 279 272 264 282 270 289 308 314 316 320 295 257 224 221 219 222 222 219 218 217 215 216 215 205 196 185 182 188 190 187 183 182 178 170 162 158
277 240 244 300 221 213 189 313 243 316 288 275 309 270 265 276 287 281 287 298 300 300 294 294 286 250 226 221 222 222 222 221 220 218 217 214 206 190 188 187 190 192 194 191 193 187 178 171 167
303 272 233 230 239 232 101 244 256 274 278 297 263 251 258 311 299 299 293 294 287 280 281 275 280 272 241 223 225 221 223 223 221 219 218 212 206 196 197 193 194 198 200 200 201 193 186 179 175
298 243 254 236 240 88 138 287 294 280 267 264 260 266 279 286 292 290 291 286 281 277 273 270 261 266 256 238 223 224 219 222 223 218 218 211 205 200 204 202 201 203 206 207 201 196 191 188 181
266 255 295 27 349 294 283 272 288 286 278 272 274 276 283 287 288 287 283 281 277 272 267 263 261 253 262 245 232 226 219 218 219 218 213 211 202 203 201 203 205 205 208 211 202 195 191 189 189
215 283 43 268 273 281 283 280 274 264 273 267 305 297 293 290 286 283 278 274 272 270 264 257 252 248 246 248 236 232 223 218 216 215 216 208 203 203 203 204 203 203 203 207 202 200 194 181 201
274 248 284 285 270 279 278 287 276 263 266 281 288 293 295 292 288 283 279 275 271 268 263 258 253 246 242 245 239 233 226 221 216 214 209 206 205 204 203 206 205 202 203 201 201 203 199 185 201
260 288 286 276 275 271 277 270 265 271 269 272 281 293 293 292 291 289 282 275 272 266 264 260 254 251 242 239 240 234 228 224 218 214 206 207 206 209 203 206 205 197 208 192 201 197 196 201 203
331 293 286 280 276 272 259 266 253 255 223 268 285 290 293 293 293 291 289 283 274 268 264 259 254 247 246 231 239 233 229 226 221 215 210 204 205 210 207 205 198 200 206 189 199 197 198 202 201
286 289 288 266 279 269 273 250 231 247 294 293 295 295 296 296 296 293 291 287 280 270 264 255 249 246 238 232 229 233 228 224 224 219 214 206 210 213 210 204 194 203 203 195 198 199 201 198 202
259 269 281 133 213 177 242 281 188 241 293 311 313 312 312 305 302 296 293 288 281 273 262 254 243 241 237 231 228 225 228 223 225 223 219 212 212 215 211 208 200 203 202 198 200 201 202 203 205
225 270 251 285 221 267 244 292 302 293 276 296 319 316 316 312 309 303 296 292 282 270 261 253 242 234 234 228 225 225 218 225 224 223 221 216 212 214 212 213 208 203 202 200 199 202 204 202 207
285 266 287 273 255 245 282 275 273 292 277 289 317 321 320 318 315 311 305 299 289 270 254 250 239 233 227 227 216 220 219 222 222 224 222 219 215 216 216 215 214 202 209 201 204 201 204 206 208
292 279 271 265 270 308 277 284 289 294 264 318 324 327 322 321 317 315 310 305 296 270 246 240 233 228 223 214 215 216 220 211 224 223 222 219 216 214 213 220 212 212 218 215 209 207 209 204 204
283 276 272 273 286 263 285 280 275 177 318 337 348 336 326 325 328 327 328 327 319 285 252 233 229 223 220 217 216 217 217 227 215 213 222 222 216 220 216 219 220 220 222 218 215 213 211 216 206
264 283 304 302 307 278 270 259 194 190 357 348 351 345 339 336 332 339 342 336 319 303 251 230 230 224 218 218 215 214 220 220 223 213 215 214 220 221 220 225 226 225 225 226 222 220 219 217 214
289 252 300 273 275 266 228 294 179 257 345 356 358 350 338 336 345 345 347 337 328 313 276 235 229 223 220 214 212 209 211 216 219 222 217 211 216 224 221 229 226 229 227 228 227 228 225 224 222
290 318 265 261 260 290 235 256 135 33 342 353 358 343 334 338 340 342 348 342 318 287 274 248 231 222 219 216 218 215 215 220 226 221 225 223 218 224 222 228 227 228 232 231 231 228 229 229 227
310 264 220 228 228 247 187 222 157 10 342 347 348 338 335 339 345 352 6 4 348 295 269 250 233 219 217 219 221 220 221 220 220 220 222 214 218 216 227 229 232 230 233 234 234 239 236 231 230
291 287 187 179 208 155 145 240 34 24 358 357 350 331 333 344 354 358 5 10 10 359 307 265 240 230 216 222 224 227 228 224 221 216 210 218 219 216 221 216 223 232 232 236 237 241 241 235 231
320 334 332 342 1 21 159 252 51 110 359 348 354 343 340 358 1 4 10 13 20 25 308 285 261 231 217 220 225 226 227 223 222 218 213 218 217 219 226 231 230 237 239 236 240 232 239 240 232
87 249 54 300 207 258 107 177 165 197 352 353 355 354 355 353 357 3 13 17 20 25 27 24 264 244 231 224 222 222 220 217 218 218 221 225 226 231 232 236 238 239 240 238 238 235 238 241 236
280 359 239 212 291 283 189 249 335 198 349 349 352 358 354 358 357 2 10 17 28 21 22 27 82 277 235 230 224 224 214 207 209 213 213 215 223 229 235 239 240 238 238 242 237 241 233 241 240
216 232 220 271 287 301 299 116 65 114 348 337 346 349 352 360 359 3 1 23 34 37 28 36 63 76 229 211 214 224 155 169 185 194 208 218 223 227 231 236 223 240 240 236 231 239 242 235 230
258 298 301 277 153 233 294 278 168 162 185 308 323 339 349 359 1 6 7 20 30 36 34 23 55 65 73 184 178 138 139 159 175 178 182 191 203 217 226 225 233 237 244 247 223 235 240 246 239
Wind_Speed_850mb
16 15 13 14 10 11 24 18 14 7 5 5 11 9 12 24 9 4 6 21 19 17 7 12 28 32 38 37 36 33 30 27 24 20 18 15 13 18 23 26 25 26 31 34 25 26 33 32 27
15 17 14 11 10 19 18 14 18 9 10 8 8 14 11 9 6 7 8 22 23 17 5 9 25 35 37 42 39 36 33 30 26 23 20 17 14 21 23 26 26 24 32 32 27 27 28 27 24
16 20 14 8 11 22 10 3 5 12 2 6 6 6 10 2 4 3 4 17 20 20 15 10 31 36 40 44 41 39 36 33 29 25 22 19 16 24 28 27 23 33 32 32 29 23 24 25 22
12 6 4 11 20 3 8 8 4 9 7 6 5 13 5 3 2 1 5 14 17 21 15 5 30 36 40 46 43 42 40 37 33 30 23 19 18 24 30 34 30 37 31 29 27 23 24 20 23
10 7 11 13 14 2 6 4 1 3 2 4 7 11 8 3 7 8 8 15 18 18 18 13 21 36 44 45 48 46 44 41 38 34 24 22 20 25 31 38 35 34 32 27 27 25 23 22 22
7 7 11 18 17 6 5 3 5 11 8 10 12 23 27 13 12 14 15 20 22 22 20 19 20 26 41 48 49 50 48 45 43 39 28 26 25 27 34 39 37 35 33 28 26 26 23 23 22
6 8 8 13 7 9 6 3 10 8 13 15 8 14 15 14 20 24 24 28 31 29 26 20 22 28 33 48 50 51 52 49 47 42 34 31 31 33 38 39 40 34 32 28 26 26 25 24 23
5 6 5 5 9 5 6 3 2 11 17 13 13 12 12 5 16 27 35 40 39 39 33 27 22 31 33 45 52 53 54 53 50 46 38 38 36 39 40 41 39 35 33 30 27 28 27 25 24
2 7 10 8 8 4 7 7 8 12 25 29 34 41 42 45 43 44 44 44 41 40 34 37 32 27 35 37 51 58 56 56 55 50 43 44 44 44 43 43 41 37 34 31 31 30 30 25 25
8 7 5 12 3 9 10 16 19 18 26 34 32 34 35 36 39 39 40 42 41 39 39 36 39 34 35 39 50 54 64 61 59 57 51 53 45 47 47 48 42 38 37 33 35 34 29 25 26
0 8 8 6 13 14 23 24 25 28 31 27 25 34 37 38 41 41 44 47 48 46 46 42 40 42 38 47 39 53 64 69 66 64 58 60 49 50 50 51 50 45 41 40 41 37 33 25 23
8 5 9 8 9 16 23 30 33 35 42 40 36 31 39 44 46 45 46 48 46 50 54 53 52 50 49 50 55 54 60 72 75 71 62 63 59 59 59 55 53 48 48 48 48 41 34 25 23
10 7 11 22 25 28 35 40 35 34 31 28 28 36 39 41 45 45 44 49 51 54 58 58 58 61 63 52 58 56 62 70 78 77 70 65 67 65 66 62 50 45 43 46 46 36 33 31 28
8 21 28 33 37 27 24 27 10 16 8 21 32 36 38 42 46 51 46 47 52 57 61 60 62 59 62 65 59 67 62 72 75 81 80 69 77 71 68 61 49 48 45 47 43 40 39 34 31
16 26 26 28 3 11 10 29 25 21 12 25 31 35 38 42 46 52 53 53 53 57 60 61 63 63 57 56 59 57 69 71 80 82 84 78 77 77 71 66 53 50 47 46 45 44 39 36 33
16 18 15 9 7 8 10 15 22 13 20 26 30 32 40 46 48 52 56 59 57 60 62 63 61 61 64 59 57 56 52 67 80 84 90 82 80 78 76 75 64 52 49 51 48 44 43 39 37
8 10 15 17 13 5 14 19 15 24 21 28 37 40 47 49 56 56 60 66 67 64 65 66 70 69 66 67 61 57 54 62 76 88 89 88 84 84 82 75 66 60 55 53 52 49 48 45 41
15 13 13 19 4 21 28 31 27 30 13 29 38 47 49 55 60 61 66 70 67 70 67 67 70 72 74 64 67 65 61 59 75 87 93 90 91 86 89 78 75 65 58 54 59 57 54 47 42
25 23 27 27 16 16 26 24 29 23 10 21 35 45 49 59 65 61 64 58 49 53 58 65 68 70 69 67 72 70 69 64 70 77 95 92 94 91 93 86 76 69 70 65 63 58 55 53 45
26 27 27 26 12 18 29 30 29 7 7 20 29 37 46 59 70 67 62 56 39 44 53 64 68 72 70 77 80 73 71 69 59 74 87 91 96 94 92 86 82 82 79 65 63 63 64 59 57
23 19 16 25 28 32 26 36 18 15 7 25 35 37 51 60 67 69 62 50 36 27 29 49 59 67 71 74 70 67 60 65 76 75 78 93 93 89 90 89 90 86 86 80 72 73 69 69 62
23 3 21 20 16 10 8 2 30 1 13 25 43 47 56 62 71 68 59 47 35 25 26 36 46 58 63 62 65 69 66 68 72 85 82 82 86 92 90 92 91 92 90 81 77 79 77 73 72
13 9 15 17 17 18 14 9 18 9 20 30 38 47 58 60 61 64 60 50 41 30 22 31 39 48 56 62 58 65 66 64 68 76 82 85 90 91 90 96 90 94 94 85 81 85 82 77 75
18 12 18 19 11 8 9 9 7 9 21 27 34 46 55 60 60 58 57 50 37 33 29 25 34 43 49 56 60 65 66 66 62 72 80 82 86 94 87 93 91 92 94 89 86 90 86 82 77
8 10 8 8 8 0 7 10 3 9 13 17 23 39 49 51 57 65 71 62 40 27 6 17 30 43 46 56 64 65 71 70 68 80 69 90 87 84 91 86 88 87 88 86 86 89 88 85 80
9 7 6 6 4 5 10 8 1 4 8 16 21 32 39 59 68 66 68 69 55 37 9 12 15 32 39 48 59 63 71 76 76 74 62 65 83 89 91 92 89 83 87 86 83 88 88 84 80
3 5 4 6 10 8 3 8 13 8 6 18 27 35 44 54 61 65 68 72 57 56 38 18 7 28 34 48 43 56 66 71 74 79 84 84 72 81 85 88 84 86 87 91 90 85 83 76 78
10 5 4 5 6 8 10 7 0 8 8 16 22 33 40 45 58 58 65 67 68 60 43 37 5 15 43 39 53 42 58 63 79 78 59 59 64 70 74 80 83 86 77 89 89 90 76 78 76
4 4 4 4 8 6 8 7 6 4 4 11 18 26 31 39 46 48 56 57 64 64 68 48 39 15 17 32 44 31 46 48 44 51 48 53 54 56 62 77 81 83 96 99 84 80 88 82 86
5 7 6 6 6 5 7 8 8 6 1 6 15 21 25 28 34 39 45 52 57 61 62 62 62 61 50 33 11 13 25 32 35 35 31 32 31 32 43 46 50 53 50 59 50 44 43 46 63
Wind_Direction_850mb
166 159 141 160 209 237 236 223 258 187 207 38 351 241 314 269 313 22 116 21 6 16 78 281 204 206 204 202 203 202 202 207 202 203 193 192 185 162 151 148 143 141 135 133 138 140 139 137 134
163 155 151 180 246 215 234 193 208 236 51 336 256 262 267 268 96 80 168 9 7 5 15 185 217 208 211 208 205 206 204 210 213 201 198 200 194 172 158 147 143 155 142 159 151 156 145 139 135
149 153 189 202 231 243 269 77 224 101 326 294 260 239 273 4 69 64 16 6 10 347 334 225 196 214 212 215 209 210 208 208 211 206 205 203 206 183 171 155 162 163 161 169 170 160 149 144 139
141 173 264 234 209 179 326 101 46 233 215 254 316 261 195 231 75 178 337 357 3 359 322 310 199 200 219 218 217 214 214 212 212 208 209 211 211 195 179 166 173 168 175 172 177 166 156 154 141
119 225 229 241 211 132 208 74 241 232 65 244 322 247 225 358 246 268 295 335 340 343 336 295 220 218 214 220 221 219 216 216 214 210 214 217 209 193 184 177 182 181 183 178 178 169 165 157 151
189 272 243 219 186 185 227 159 253 257 279 273 278 279 272 264 282 270 289 308 314 316 320 295 257 224 221 219 222 222 219 218 217 215 216 215 205 196 185 182 188 190 187 183 182 178 170 162 158
277 240 244 300 221 213 189 313 243 316 288 275 309 270 265 276 287 281 287 298 300 300 294 294 286 250 226 221 222 222 222 221 220 218 217 214 206 190 188 187 190 192 194 191 193 187 178 171 167
303 272 233 230 239 232 101 244 256 274 278 297 263 251 258 311 299 299 293 294 287 280 281 275 280 272 241 223 225 221 223 223 221 219 218 212 206 196 197 193 194 198 200 200 201 193 186 179 175
298 243 254 236 240 88 138 287 294 280 267 264 260 266 279 286 292 290 291 286 281 277 273 270 261 266 256 238 223 224 219 222 223 218 218 211 205 200 204 202 201 203 206 207 201 196 191 188 181
266 255 295 27 349 294 283 272 288 286 278 272 274 276 283 287 288 287 283 281 277 272 267 263 261 253 262 245 232 226 219 218 219 218 213 211 202 203 201 203 205 205 208 211 202 195 191 189 189
215 283 43 268 273 281 283 280 274 264 273 267 305 297 293 290 286 283 278 274 272 270 264 257 252 248 246 248 236 232 223 218 216 215 216 208 203 203 203 204 203 203 203 207 202 200 194 181 201
274 248 284 285 270 279 278 287 276 263 266 281 288 293 295 292 288 283 279 275 271 268 263 258 253 246 242 245 239 233 226 221 216 214 209 206 205 204 203 206 205 202 203 201 201 203 199 185 201
260 288 286 276 275 271 277 270 265 271 269 272 281 293 293 292 291 289 282 275 272 266 264 260 254 251 242 239 240 234 228 224 218 214 206 207 206 209 203 206 205 197 208 192 201 197 196 201 203
331 293 286 280 276 272 259 266 253 255 223 268 285 290 293 293 293 291 289 283 274 268 264 259 254 247 246 231 239 233 229 226 221 215 210 204 205 210 207 205 198 200 206 189 199 197 198 202 201
286 289 288 266 279 269 273 250 231 247 294 293 295 295 296 296 296 293 291 287 280 270 264 255 249 246 238 232 229 233 228 224 224 219 214 206 210 213 210 204 194 203 203 195 198 199 201 198 202
259 269 281 133 213 177 242 281 188 241 293 311 313 312 312 305 302 296 293 288 281 273 262 254 243 241 237 231 228 225 228 223 225 223 219 212 212 215 211 208 200 203 202 198 200 201 202 203 205
225 270 251 285 221 267 244 292 302 293 276 296 319 316 316 312 309 303 296 292 282 270 261 253 242 234 234 228 225 225 218 225 224 223 221 216 212 214 212 213 208 203 202 200 199 202 204 202 207
285 266 287 273 255 245 282 275 273 292 277 289 317 321 320 318 315 311 305 299 289 270 254 250 239 233 227 227 216 220 219 222 222 224 222 219 215 216 216 215 214 202 209 201 204 201 204 206 208
292 279 271 265 270 308 277 284 289 294 264 318 324 327 322 321 317 315 310 305 296 270 246 240 233 228 223 214 215 216 220 211 224 223 222 219 216 214 213 220 212 212 218 215 209 207 209 204 204
283 276 272 273 286 263 285 280 275 177 318 337 348 336 326 325 328 327 328 327 319 285 252 233 229 223 220 217 216 217 217 227 215 213 222 222 216 220 216 219 220 220 222 218 215 213 211 216 206
264 283 304 302 307 278 270 259 194 190 357 348 351 345 339 336 332 339 342 336 319 303 251 230 230 224 218 218 215 214 220 220 223 213 215 214 220 221 220 225 226 225 225 226 222 220 219 217 214
289 252 300 273 275 266 228 294 179 257 345 356 358 350 338 336 345 345 347 337 328 313 276 235 229 223 220 214 212 209 211 216 219 222 217 211 216 224 221 229 226 229 227 228 227 228 225 224 222
290 318 265 261 260 290 235 256 135 33 342 353 358 343 334 338 340 342 348 342 318 287 274 248 231 222 219 216 218 215 215 220 226 221 225 223 218 224 222 228 227 228 232 231 231 228 229 229 227
310 264 220 228 228 247 187 222 157 10 342 347 348 338 335 339 345 352 6 4 348 295 269 250 233 219 217 219 221 220 221 220 220 220 222 214 218 216 227 229 232 230 233 234 234 239 236 231 230
291 287 187 179 208 155 145 240 34 24 358 357 350 331 333 344 354 358 5 10 10 359 307 265 240 230 216 222 224 227 228 224 221 216 210 218 219 216 221 216 223 232 232 236 237 241 241 235 231
320 334 332 342 1 21 159 252 51 110 359 348 354 343 340 358 1 4 10 13 20 25 308 285 261 231 217 220 225 226 227 223 222 218 213 218 217 219 226 231 230 237 239 236 240 232 239 240 232
87 249 54 300 207 258 107 177 165 197 352 353 355 354 355 353 357 3 13 17 20 25 27 24 264 244 231 224 222 222 220 217 218 218 221 225 226 231 232 236 238 239 240 238 238 235 238 241 236
280 359 239 212 291 283 189 249 335 198 349 349 352 358 354 358 357 2 10 17 28 21 22 27 82 277 235 230 224 224 214 207 209 213 213 215 223 229 235 239 240 238 238 242 237 241 233 241 240
216 232 220 271 287 301 299 116 65 114 348 337 346 349 352 360 359 3 1 23 34 37 28 36 63 76 229 211 214 224 155 169 185 194 208 218 223 227 231 236 223 240 240 236 231 239 242 235 230
258 298 301 277 153 233 294 278 168 162 185 308 323 339 349 359 1 6 7 20 30 36 34 23 55 65 73 184 178 138 139 159 175 178 182 191 203 217 226 225 233 237 244 247 223 235 240 246 239